Weather in Rozental

Russia / Republic of Kalmykia     46°04′13″N   42°03′07″E
temp.,
°C
wind,
m/s
gust,
m/s
humid.,
%
clouds,
%
prec.,
mm/h
press.,
hPa
HPBL,
m
26 july, mon
mon2600:00+23e33450 0.0 101623
03:00+23ese344923 0.0 101667
06:00+23e385689 0.0 1018185
09:00+28e6103682 0.0 1017848
12:00+30ese71027100 0.0 10181746
15:00+31ese7102395 0.0 10162247
18:00+32e592893 0.0 10152387
21:00+27e473477 0.0 1015128
27 july, tue
tue2700:00+26e3937100 0.0 1016250
03:00+23e41044100 0.0 1016242
06:00+24ese51141100 0.0 1017390
09:00+27sse6941100 0.0 10181503
12:00+25se7948100 0.0 10191162
15:00+24ese71048100 0.0 1019986
18:00+22se41154100 0.0 1019687
21:00+20sse3668100 0.0 1020235
28 july, wed
wed2800:00+18s2670100 0.0 1020236
03:00+18nne0065100 0.0 101911
06:00+19n116394 0.0 101939
09:00+25sw11411 0.0 1019875
12:00+29ne23330 0.0 10171986
15:00+31ene442612 0.0 10162978
18:00+29ene34260 0.0 10161845
21:00+24sse11350 0.0 101611
29 july, thu
thu2900:00+19sw34540 0.0 101645
03:00+18wnw11585 0.0 101611
06:00+20ene00555 0.0 101611
09:00+27e22345 0.0 1015547
12:00+32ese45215 0.0 10142479
15:00+33ese33190 0.0 10132903
18:00+32se32203 0.0 10122732
21:00+25s35310 0.0 101252
30 july, fri
fri3000:00+22wsw22410 0.0 101212
03:00+21sw22420 0.0 101211
06:00+22nne11420 0.0 101211
09:00+30ese34270 0.0 1012594
12:00+34ese44200 0.0 10112495
15:00+35ese44170 0.0 10102834
18:00+33ese44180 0.0 10101885
21:00+26e22265 0.0 101012